,,Stat6,,Stat2,,Stat8,,Stat9,,Stat10,,Wind1,,Wind1,
time,status,PA1M_AVG,status,PR1M_SUM,status,RH1M_AVG,status,SR1M_AVG,status,TA1M_AVG,status,W1dAve1m,status,W1sAve1m,
2007-12-10, 00:00:00,VALID,915.936,VALID,0,VALID,100,VALID,-0.0169808,VALID,20.4484,VALID,214,VALID,0,
2007-12-10, 00:01:00,VALID,915.919,VALID,0,VALID,100,VALID,0,VALID,20.4446,VALID,200,VALID,0.377725,
2007-12-10, 00:02:00,VALID,915.916,VALID,0,VALID,100,VALID,-0.0169808,VALID,20.4479,VALID,187,VALID,0.764353,
2007-12-10, 00:03:00,VALID,915.892,VALID,0,VALID,100,VALID,0.0169808,VALID,20.4349,VALID,187,VALID,0.516197,
2007-12-10, 00:04:00,VALID,915.889,VALID,0,VALID,100,VALID,0.0169808,VALID,20.4189,VALID,187,VALID,0.505269,
2007-12-10, 00:05:00,VALID,915.9,VALID,0,VALID,100,VALID,-0.0339617,VALID,20.4254,VALID,187,VALID,0.0181108,
2007-12-10, 00:06:00,VALID,915.89,VALID,0,VALID,100,VALID,0,VALID,20.4224,VALID,179,VALID,0.354911,
2007-12-10, 00:07:00,VALID,915.886,VALID,0,VALID,100,VALID,0,VALID,20.4027,VALID,146,VALID,0.37686,
2007-12-10, 00:08:00,VALID,915.872,VALID,0,VALID,100,VALID,-0.0339617,VALID,20.3997,VALID,146,VALID,0.166016,
2007-12-10, 00:09:00,VALID,915.854,VALID,0,VALID,100,VALID,-0.0169808,VALID,20.3827,VALID,146,VALID,0.166481,
2007-12-10, 00:10:00,VALID,915.829,VALID,0,VALID,100,VALID,0,VALID,20.3929,VALID,146,VALID,0.185785,
2007-12-10, 00:11:00,VALID,915.816,VALID,0,VALID,100,VALID,-0.0169808,VALID,20.3829,VALID,146,VALID,0,
2007-12-10, 00:12:00,VALID,915.803,VALID,0,VALID,100,VALID,-0.0849042,VALID,20.3977,VALID,146,VALID,0.0267578,
2007-12-10, 00:13:00,VALID,915.795,VALID,0,VALID,100,VALID,-0.152827,VALID,20.3953,VALID,138,VALID,0.305051,
2007-12-10, 00:14:00,VALID,915.776,VALID,0,VALID,100,VALID,-0.118866,VALID,20.3783,VALID,90,VALID,0.510298,
2007-12-10, 00:15:00,VALID,915.753,VALID,0,VALID,100,VALID,-0.118866,VALID,20.3461,VALID,98,VALID,0.724746,
2007-12-10, 00:16:00,VALID,915.738,VALID,0,VALID,100,VALID,-0.135847,VALID,20.3363,VALID,104,VALID,0.83457,
2007-12-10, 00:17:00,VALID,915.711,VALID,0,VALID,100,VALID,-0.118866,VALID,20.3269,VALID,108,VALID,0.68821,
2007-12-10, 00:18:00,VALID,915.68,VALID,0,VALID,100,VALID,-0.118866,VALID,20.3039,VALID,129,VALID,0.918636,
2007-12-10, 00:19:00,VALID,915.643,VALID,0,VALID,100,VALID,-0.135847,VALID,20.3039,VALID,145,VALID,1.23121,
2007-12-10, 00:20:00,VALID,915.632,VALID,0,VALID,100,VALID,-0.169808,VALID,20.3074,VALID,133,VALID,0.886009,
2007-12-10, 00:21:00,VALID,915.619,VALID,0,VALID,100,VALID,-0.152827,VALID,20.3071,VALID,130,VALID,1.0943,
2007-12-10, 00:22:00,VALID,915.62,VALID,0,VALID,100,VALID,-0.135847,VALID,20.3066,VALID,130,VALID,1.35605,
2007-12-10, 00:23:00,VALID,915.609,VALID,0,VALID,100,VALID,-0.135847,VALID,20.3139,VALID,131,VALID,1.62216,
2007-12-10, 00:24:00,VALID,915.607,VALID,0,VALID,100,VALID,-0.118866,VALID,20.3169,VALID,127,VALID,1.20365,
2007-12-10, 00:25:00,VALID,915.603,VALID,0,VALID,100,VALID,-0.152827,VALID,20.3271,VALID,126,VALID,0.843006,
2007-12-10, 00:26:00,VALID,915.583,VALID,0,VALID,100,VALID,-0.118866,VALID,20.3198,VALID,114,VALID,0.666548,
2007-12-10, 00:27:00,VALID,915.565,VALID,0,VALID,100,VALID,-0.0169808,VALID,20.3113,VALID,118,VALID,0.896577,
2007-12-10, 00:28:00,VALID,915.543,VALID,0,VALID,100,VALID,0,VALID,20.3048,VALID,127,VALID,0.886418,
2007-12-10, 00:29:00,VALID,915.519,VALID,0,VALID,100,VALID,-0.0169808,VALID,20.2991,VALID,126,VALID,1.12031,
2007-12-10, 00:30:00,VALID,915.485,VALID,0,VALID,100,VALID,-0.0679233,VALID,20.2958,VALID,133,VALID,0.917969,
2007-12-10, 00:31:00,VALID,915.438,VALID,0,VALID,100,VALID,-0.0339617,VALID,20.2991,VALID,128,VALID,0.578852,
2007-12-10, 00:32:00,VALID,915.407,VALID,0,VALID,100,VALID,-0.0509425,VALID,20.2956,VALID,141,VALID,0.444404,
2007-12-10, 00:33:00,VALID,915.372,VALID,0,VALID,100,VALID,0,VALID,20.3023,VALID,140,VALID,0.330966,
2007-12-10, 00:34:00,VALID,915.328,VALID,0,VALID,100,VALID,-0.0339617,VALID,20.2923,VALID,122,VALID,0.509896,
2007-12-10, 00:35:00,VALID,915.301,VALID,0,VALID,100,VALID,-0.0169808,VALID,20.2796,VALID,106,VALID,0.587358,
2007-12-10, 00:36:00,VALID,915.263,VALID,0,VALID,100,VALID,-0.0339617,VALID,20.2826,VALID,105,VALID,0.569124,
2007-12-10, 00:37:00,VALID,915.223,VALID,0,VALID,100,VALID,-0.0169808,VALID,20.2891,VALID,105,VALID,0.64027,
2007-12-10, 00:38:00,VALID,915.195,VALID,0,VALID,99.9613,VALID,-0.0169808,VALID,20.3088,VALID,111,VALID,1.00273,
2007-12-10, 00:39:00,VALID,915.158,VALID,0,VALID,99.8515,VALID,0.0169808,VALID,20.2918,VALID,120,VALID,1.18638,
2007-12-10, 00:40:00,VALID,915.124,VALID,0,VALID,99.7892,VALID,0,VALID,20.2856,VALID,128,VALID,1.28997,
2007-12-10, 00:41:00,VALID,915.086,VALID,0,VALID,99.7167,VALID,0,VALID,20.2821,VALID,140,VALID,1.37082,
2007-12-10, 00:42:00,VALID,915.062,VALID,0,VALID,99.6239,VALID,-0.0509425,VALID,20.2826,VALID,138,VALID,1.02679,
2007-12-10, 00:43:00,VALID,915.034,VALID,0,VALID,99.5094,VALID,-0.0339617,VALID,20.2923,VALID,147,VALID,1.09766,
2007-12-10, 00:44:00,VALID,914.999,VALID,0,VALID,99.4191,VALID,-0.0339617,VALID,20.2993,VALID,147,VALID,1.0209,
2007-12-10, 00:45:00,VALID,914.971,VALID,0,VALID,99.3441,VALID,-0.0509425,VALID,20.2993,VALID,141,VALID,1.16921,
2007-12-10, 00:46:00,VALID,914.962,VALID,0,VALID,99.3365,VALID,-0.0169808,VALID,20.2824,VALID,148,VALID,1.00409,
2007-12-10, 00:47:00,VALID,914.925,VALID,0,VALID,99.3657,VALID,-0.0509425,VALID,20.2831,VALID,152,VALID,0.990039,
2007-12-10, 00:48:00,VALID,914.896,VALID,0,VALID,99.3657,VALID,-0.0849042,VALID,20.2629,VALID,152,VALID,0.751817,
2007-12-10, 00:49:00,VALID,914.868,VALID,0,VALID,99.4725,VALID,0,VALID,20.2502,VALID,151,VALID,0.784489,
2007-12-10, 00:50:00,VALID,914.843,VALID,0,VALID,99.615,VALID,-0.0339617,VALID,20.2309,VALID,138,VALID,0.776042,
2007-12-10, 00:51:00,VALID,914.827,VALID,0,VALID,99.8388,VALID,-0.0339617,VALID,20.1945,VALID,138,VALID,1.10271,
2007-12-10, 00:52:00,VALID,914.798,VALID,0,VALID,99.9619,VALID,-0.0169808,VALID,20.1623,VALID,127,VALID,0.751367,
2007-12-10, 00:53:00,VALID,914.775,VALID,0,VALID,100,VALID,-0.0169808,VALID,20.1331,VALID,134,VALID,1.23628,
2007-12-10, 00:54:00,VALID,914.773,VALID,0,VALID,100,VALID,-0.0339617,VALID,20.1136,VALID,135,VALID,1.09115,
2007-12-10, 00:55:00,VALID,914.769,VALID,0,VALID,100,VALID,-0.0509425,VALID,20.1269,VALID,144,VALID,1.26445,
2007-12-10, 00:56:00,VALID,914.765,VALID,0,VALID,100,VALID,-0.0339617,VALID,20.1266,VALID,144,VALID,0.998476,
2007-12-10, 00:57:00,VALID,914.756,VALID,0,VALID,100,VALID,-0.0679233,VALID,20.1331,VALID,164,VALID,1.04594,
2007-12-10, 00:58:00,VALID,914.742,VALID,0,VALID,100,VALID,-0.0509425,VALID,20.1396,VALID,172,VALID,0.743823,
2007-12-10, 00:59:00,VALID,914.733,VALID,0,VALID,100,VALID,-0.0509425,VALID,20.1561,VALID,171,VALID,0.398819,
2007-12-10, 01:00:00,VALID,914.715,VALID,0,VALID,100,VALID,0,VALID,20.1685,VALID,169,VALID,0.933866,
2007-12-10, 01:01:00,VALID,914.711,VALID,0,VALID,100,VALID,0,VALID,20.1561,VALID,163,VALID,1.17708,
2007-12-10, 01:02:00,VALID,914.701,VALID,0,VALID,100,VALID,-0.0679233,VALID,20.1561,VALID,161,VALID,0.906808,
2007-12-10, 01:03:00,VALID,914.708,VALID,0,VALID,100,VALID,-0.0509425,VALID,20.1466,VALID,158,VALID,1.02131,
2007-12-10, 01:04:00,VALID,914.689,VALID,0,VALID,100,VALID,0,VALID,20.1266,VALID,161,VALID,1.12593,
2007-12-10, 01:05:00,VALID,914.693,VALID,0,VALID,100,VALID,-0.0169808,VALID,20.1209,VALID,151,VALID,1.04106,
2007-12-10, 01:06:00,VALID,914.699,VALID,0,VALID,100,VALID,-0.0339617,VALID,20.1136,VALID,139,VALID,1.25,
2007-12-10, 01:07:00,VALID,914.711,VALID,0,VALID,100,VALID,-0.0509425,VALID,20.1304,VALID,163,VALID,1.8056,
2007-12-10, 01:08:00,VALID,914.716,VALID,0,VALID,99.9901,VALID,-0.0509425,VALID,20.169,VALID,146,VALID,1.16825,
2007-12-10, 01:09:00,VALID,914.712,VALID,0,VALID,99.8146,VALID,-0.0169808,VALID,20.1987,VALID,139,VALID,1.12028,
2007-12-10, 01:10:00,VALID,914.677,VALID,0,VALID,99.6913,VALID,-0.0679233,VALID,20.2047,VALID,138,VALID,1.55526,
2007-12-10, 01:11:00,VALID,914.678,VALID,0,VALID,99.5425,VALID,-0.0169808,VALID,20.2342,VALID,148,VALID,1.10305,
2007-12-10, 01:12:00,VALID,914.652,VALID,0,VALID,99.3695,VALID,-0.0339617,VALID,20.2437,VALID,136,VALID,1.19611,
2007-12-10, 01:13:00,VALID,914.624,VALID,0,VALID,99.1203,VALID,-0.0169808,VALID,20.2859,VALID,131,VALID,1.39081,
2007-12-10, 01:14:00,VALID,914.6,VALID,0,VALID,98.8151,VALID,-0.0339617,VALID,20.3313,VALID,121,VALID,0.95694,
2007-12-10, 01:15:00,VALID,914.593,VALID,0,VALID,98.6155,VALID,-0.0339617,VALID,20.3635,VALID,123,VALID,0.809896,
2007-12-10, 01:16:00,VALID,914.563,VALID,0,VALID,98.3904,VALID,-0.0679233,VALID,20.3824,VALID,141,VALID,0.859738,
2007-12-10, 01:17:00,VALID,914.536,VALID,0,VALID,98.2365,VALID,-0.0679233,VALID,20.4189,VALID,124,VALID,0.907522,
2007-12-10, 01:18:00,VALID,914.523,VALID,0,VALID,97.9657,VALID,-0.0679233,VALID,20.4611,VALID,125,VALID,0.907366,
2007-12-10, 01:19:00,VALID,914.51,VALID,0,VALID,97.5867,VALID,-0.0169808,VALID,20.4768,VALID,149,VALID,0.899009,
2007-12-10, 01:20:00,VALID,914.513,VALID,0,VALID,97.1646,VALID,-0.0339617,VALID,20.5192,VALID,103,VALID,1.19082,
2007-12-10, 01:21:00,VALID,914.501,VALID,0,VALID,96.6788,VALID,-0.0169808,VALID,20.5649,VALID,109,VALID,1.47396,
2007-12-10, 01:22:00,VALID,914.491,VALID,0,VALID,96.1575,VALID,0,VALID,20.6648,VALID,109,VALID,0.633539,
2007-12-10, 01:23:00,VALID,914.475,VALID,0,VALID,95.6056,VALID,0,VALID,20.7621,VALID,172,VALID,0.573242,
2007-12-10, 01:24:00,VALID,914.458,VALID,0,VALID,95.1949,VALID,0,VALID,20.8238,VALID,132,VALID,0.690048,
2007-12-10, 01:25:00,VALID,914.452,VALID,0,VALID,95.0677,VALID,0,VALID,20.8433,VALID,95,VALID,0.796113,
2007-12-10, 01:26:00,VALID,914.449,VALID,0,VALID,95.1427,VALID,-0.0169808,VALID,20.8143,VALID,126,VALID,0.333757,
2007-12-10, 01:27:00,VALID,914.43,VALID,0,VALID,95.3678,VALID,-0.0339617,VALID,20.7754,VALID,122,VALID,1.07775,
2007-12-10, 01:28:00,VALID,914.423,VALID,0,VALID,95.7213,VALID,-0.0169808,VALID,20.7202,VALID,126,VALID,1.27634,
2007-12-10, 01:29:00,VALID,914.411,VALID,0,VALID,95.9934,VALID,-0.0169808,VALID,20.6848,VALID,138,VALID,0.644717,
2007-12-10, 01:30:00,VALID,914.376,VALID,0,VALID,96.1778,VALID,-0.0169808,VALID,20.6461,VALID,113,VALID,0,
2007-12-10, 01:31:00,VALID,914.343,VALID,0,VALID,96.3279,VALID,-0.0339617,VALID,20.6001,VALID,115,VALID,0,
2007-12-10, 01:32:00,VALID,914.32,VALID,0,VALID,96.427,VALID,-0.0339617,VALID,20.5809,VALID,151,VALID,0.435069,
2007-12-10, 01:33:00,VALID,914.308,VALID,0,VALID,96.4932,VALID,-0.0169808,VALID,20.5614,VALID,143,VALID,0.0576637,
2007-12-10, 01:34:00,VALID,914.305,VALID,0,VALID,96.5707,VALID,-0.0339617,VALID,20.5649,VALID,101,VALID,0.603051,
2007-12-10, 01:35:00,VALID,914.278,VALID,0,VALID,96.4372,VALID,-0.0679233,VALID,20.5422,VALID,119,VALID,1.04148,
2007-12-10, 01:36:00,VALID,914.266,VALID,0,VALID,96.3609,VALID,-0.0849042,VALID,20.5385,VALID,133,VALID,1.23136,
2007-12-10, 01:37:00,VALID,914.245,VALID,0,VALID,96.2388,VALID,-0.0339617,VALID,20.5842,VALID,134,VALID,0.81715,
2007-12-10, 01:38:00,VALID,914.225,VALID,0,VALID,96.1651,VALID,-0.0679233,VALID,20.6071,VALID,146,VALID,0.740513,
2007-12-10, 01:39:00,VALID,914.223,VALID,0,VALID,96.1587,VALID,-0.0169808,VALID,20.6104,VALID,141,VALID,0.936458,
2007-12-10, 01:40:00,VALID,914.224,VALID,0,VALID,96.2121,VALID,-0.0509425,VALID,20.5974,VALID,141,VALID,0.749818,
2007-12-10, 01:41:00,VALID,914.232,VALID,0,VALID,96.2846,VALID,-0.0169808,VALID,20.5609,VALID,146,VALID,0.582812,
2007-12-10, 01:42:00,VALID,914.22,VALID,0,VALID,96.427,VALID,-0.0169808,VALID,20.5485,VALID,153,VALID,0.480646,
2007-12-10, 01:43:00,VALID,914.231,VALID,0,VALID,96.5809,VALID,0.0339617,VALID,20.5255,VALID,156,VALID,0.661754,
2007-12-10, 01:44:00,VALID,914.216,VALID,0,VALID,96.7602,VALID,0,VALID,20.493,VALID,154,VALID,0.273849,
2007-12-10, 01:45:00,VALID,914.206,VALID,0,VALID,96.9598,VALID,-0.0339617,VALID,20.4638,VALID,170,VALID,0.500617,
2007-12-10, 01:46:00,VALID,914.196,VALID,0,VALID,97.148,VALID,0,VALID,20.4441,VALID,171,VALID,0.407315,
2007-12-10, 01:47:00,VALID,914.187,VALID,0,VALID,97.3159,VALID,0.0169808,VALID,20.4054,VALID,119,VALID,0.633185,
2007-12-10, 01:48:00,VALID,914.165,VALID,0,VALID,97.5092,VALID,0,VALID,20.3597,VALID,129,VALID,0.334821,
2007-12-10, 01:49:00,VALID,914.161,VALID,0,VALID,97.7317,VALID,0,VALID,20.3273,VALID,145,VALID,0.269345,
2007-12-10, 01:50:00,VALID,914.14,VALID,0,VALID,97.9403,VALID,0.0169808,VALID,20.2986,VALID,137,VALID,0.376143,
2007-12-10, 01:51:00,VALID,914.146,VALID,0,VALID,98.1221,VALID,0,VALID,20.2821,VALID,151,VALID,0.206759,
2007-12-10, 01:52:00,VALID,914.152,VALID,0,VALID,98.2213,VALID,0.0169808,VALID,20.2691,VALID,151,VALID,0.243555,
2007-12-10, 01:53:00,VALID,914.15,VALID,0,VALID,98.3523,VALID,0,VALID,20.2467,VALID,151,VALID,0.134811,
2007-12-10, 01:54:00,VALID,914.142,VALID,0,VALID,98.4553,VALID,0.0339617,VALID,20.2234,VALID,151,VALID,0.211868,
2007-12-10, 01:55:00,VALID,914.129,VALID,0,VALID,98.5417,VALID,0.0169808,VALID,20.191,VALID,151,VALID,0.00218023,
2007-12-10, 01:56:00,VALID,914.136,VALID,0,VALID,98.66,VALID,0.0169808,VALID,20.1812,VALID,168,VALID,0.179116,
2007-12-10, 01:57:00,VALID,914.154,VALID,0,VALID,98.8762,VALID,-0.0509425,VALID,20.1858,VALID,199,VALID,0.266555,
2007-12-10, 01:58:00,VALID,914.157,VALID,0,VALID,99.0071,VALID,-0.0849042,VALID,20.176,VALID,199,VALID,0.0859375,
2007-12-10, 01:59:00,VALID,914.168,VALID,0,VALID,99.1496,VALID,-0.0849042,VALID,20.1633,VALID,199,VALID,0.248095,
2007-12-10, 02:00:00,VALID,914.166,VALID,0,VALID,99.3556,VALID,-0.101885,VALID,20.1503,VALID,209,VALID,0.470982,
2007-12-10, 02:01:00,VALID,914.154,VALID,0,VALID,99.5832,VALID,-0.0679233,VALID,20.1176,VALID,261,VALID,0.380208,
2007-12-10, 02:02:00,VALID,914.156,VALID,0,VALID,99.7993,VALID,-0.0679233,VALID,20.0857,VALID,261,VALID,0.0671503,
2007-12-10, 02:03:00,VALID,914.179,VALID,0,VALID,99.9657,VALID,-0.118866,VALID,20.0765,VALID,261,VALID,0.00090843,
2007-12-10, 02:04:00,VALID,914.149,VALID,0,VALID,100,VALID,-0.118866,VALID,20.0467,VALID,261,VALID,0,
2007-12-10, 02:05:00,VALID,914.147,VALID,0,VALID,100,VALID,-0.0849042,VALID,20.034,VALID,261,VALID,0,
2007-12-10, 02:06:00,VALID,914.126,VALID,0,VALID,100,VALID,-0.101885,VALID,20.0208,VALID,261,VALID,0.316679,
2007-12-10, 02:07:00,VALID,914.112,VALID,0,VALID,100,VALID,-0.101885,VALID,19.9911,VALID,261,VALID,0.664063,
2007-12-10, 02:08:00,VALID,914.092,VALID,0,VALID,100,VALID,-0.118866,VALID,19.9791,VALID,260,VALID,0.583394,
2007-12-10, 02:09:00,VALID,914.089,VALID,0,VALID,100,VALID,-0.0679233,VALID,19.9726,VALID,260,VALID,0.2234,
2007-12-10, 02:10:00,VALID,914.082,VALID,0,VALID,100,VALID,-0.101885,VALID,19.9559,VALID,260,VALID,0,
2007-12-10, 02:11:00,VALID,914.09,VALID,0,VALID,100,VALID,-0.101885,VALID,19.9529,VALID,260,VALID,0,
2007-12-10, 02:12:00,VALID,914.084,VALID,0,VALID,100,VALID,-0.0169808,VALID,19.9414,VALID,260,VALID,0,
2007-12-10, 02:13:00,VALID,914.097,VALID,0,VALID,100,VALID,0.0169808,VALID,19.9549,VALID,260,VALID,0,
2007-12-10, 02:14:00,VALID,914.088,VALID,0,VALID,100,VALID,0,VALID,19.9314,VALID,260,VALID,0,
2007-12-10, 02:15:00,VALID,914.086,VALID,0,VALID,100,VALID,0,VALID,19.9449,VALID,260,VALID,0,
2007-12-10, 02:16:00,VALID,914.071,VALID,0,VALID,100,VALID,0.0169808,VALID,19.9509,VALID,260,VALID,0,
2007-12-10, 02:17:00,VALID,914.065,VALID,0,VALID,100,VALID,0,VALID,19.9576,VALID,260,VALID,0,
2007-12-10, 02:18:00,VALID,914.053,VALID,0,VALID,100,VALID,0,VALID,19.9509,VALID,260,VALID,0,
2007-12-10, 02:19:00,VALID,914.06,VALID,0,VALID,100,VALID,-0.0169808,VALID,19.9641,VALID,260,VALID,0,
2007-12-10, 02:20:00,VALID,914.072,VALID,0,VALID,100,VALID,0,VALID,19.9706,VALID,260,VALID,0,
2007-12-10, 02:21:00,VALID,914.085,VALID,0,VALID,100,VALID,-0.0169808,VALID,19.9936,VALID,260,VALID,0,
2007-12-10, 02:22:00,VALID,914.072,VALID,0,VALID,100,VALID,-0.0339617,VALID,20.0033,VALID,260,VALID,0,
2007-12-10, 02:23:00,VALID,914.082,VALID,0,VALID,100,VALID,-0.0169808,VALID,20.019,VALID,260,VALID,0,
2007-12-10, 02:24:00,VALID,914.07,VALID,0,VALID,100,VALID,0,VALID,20.0295,VALID,209,VALID,0.380145,
2007-12-10, 02:25:00,VALID,914.065,VALID,0,VALID,100,VALID,0,VALID,20.0128,VALID,168,VALID,0.259722,
2007-12-10, 02:26:00,VALID,914.06,VALID,0,VALID,100,VALID,-0.0339617,VALID,20.006,VALID,168,VALID,0.181548,
2007-12-10, 02:27:00,VALID,914.051,VALID,0,VALID,100,VALID,0,VALID,20.023,VALID,158,VALID,0.495722,
2007-12-10, 02:28:00,VALID,914.055,VALID,0,VALID,100,VALID,0,VALID,20.0457,VALID,154,VALID,0.218576,
2007-12-10, 02:29:00,VALID,914.038,VALID,0,VALID,100,VALID,0,VALID,20.0582,VALID,156,VALID,0.211664,
2007-12-10, 02:30:00,VALID,914.029,VALID,0,VALID,100,VALID,0.0339617,VALID,20.0777,VALID,144,VALID,0.439757,
2007-12-10, 02:31:00,VALID,914.019,VALID,0,VALID,100,VALID,0,VALID,20.0837,VALID,144,VALID,0.525298,
2007-12-10, 02:32:00,VALID,914.018,VALID,0,VALID,100,VALID,0,VALID,20.0936,VALID,162,VALID,0.436228,
2007-12-10, 02:33:00,VALID,914.011,VALID,0,VALID,100,VALID,0,VALID,20.1104,VALID,149,VALID,0.653888,
2007-12-10, 02:34:00,VALID,914.005,VALID,0,VALID,100,VALID,0,VALID,20.1296,VALID,158,VALID,0.700391,
2007-12-10, 02:35:00,VALID,913.998,VALID,0,VALID,99.9804,VALID,0,VALID,20.1526,VALID,145,VALID,0.484189,
2007-12-10, 02:36:00,VALID,913.996,VALID,0,VALID,99.8985,VALID,-0.0169808,VALID,20.1683,VALID,140,VALID,0.306686,
2007-12-10, 02:37:00,VALID,913.995,VALID,0,VALID,99.8248,VALID,-0.0339617,VALID,20.1718,VALID,167,VALID,0.648438,
2007-12-10, 02:38:00,VALID,913.981,VALID,0,VALID,99.7561,VALID,0,VALID,20.1915,VALID,172,VALID,0.626453,
2007-12-10, 02:39:00,VALID,913.975,VALID,0,VALID,99.69,VALID,0.0339617,VALID,20.2075,VALID,163,VALID,0.303757,
2007-12-10, 02:40:00,VALID,913.973,VALID,0,VALID,99.6404,VALID,0,VALID,20.2105,VALID,160,VALID,0.555259,
2007-12-10, 02:41:00,VALID,913.968,VALID,0,VALID,99.5832,VALID,-0.0169808,VALID,20.2175,VALID,165,VALID,0.0529119,
2007-12-10, 02:42:00,VALID,913.949,VALID,0,VALID,99.5654,VALID,0,VALID,20.2302,VALID,165,VALID,0.241992,
2007-12-10, 02:43:00,VALID,913.95,VALID,0,VALID,99.5972,VALID,0,VALID,20.2369,VALID,163,VALID,0.12779,
2007-12-10, 02:44:00,VALID,913.952,VALID,0,VALID,99.5514,VALID,-0.0169808,VALID,20.2464,VALID,151,VALID,0.511905,
2007-12-10, 02:45:00,VALID,913.939,VALID,0,VALID,99.5285,VALID,0,VALID,20.2426,VALID,141,VALID,0.00799419,
2007-12-10, 02:46:00,VALID,913.943,VALID,0,VALID,99.4662,VALID,0.0169808,VALID,20.2461,VALID,141,VALID,0,
2007-12-10, 02:47:00,VALID,913.92,VALID,0,VALID,99.4496,VALID,0.0169808,VALID,20.2429,VALID,141,VALID,0.174361,
2007-12-10, 02:48:00,VALID,913.93,VALID,0,VALID,99.4636,VALID,0.0339617,VALID,20.2429,VALID,141,VALID,0.0495384,
2007-12-10, 02:49:00,VALID,913.922,VALID,0,VALID,99.4585,VALID,0.0679233,VALID,20.2262,VALID,141,VALID,0.115945,
2007-12-10, 02:50:00,VALID,913.913,VALID,0,VALID,99.4967,VALID,-0.0169808,VALID,20.2329,VALID,141,VALID,0.178089,
2007-12-10, 02:51:00,VALID,913.903,VALID,0,VALID,99.5704,VALID,0.0169808,VALID,20.2394,VALID,141,VALID,0.248476,
2007-12-10, 02:52:00,VALID,913.892,VALID,0,VALID,99.5069,VALID,0,VALID,20.2264,VALID,141,VALID,0.511347,
2007-12-10, 02:53:00,VALID,913.901,VALID,0,VALID,99.5387,VALID,0.0169808,VALID,20.2202,VALID,141,VALID,0.320845,
2007-12-10, 02:54:00,VALID,913.895,VALID,0,VALID,99.5437,VALID,0.0509425,VALID,20.2169,VALID,140,VALID,0.633929,
2007-12-10, 02:55:00,VALID,913.903,VALID,0,VALID,99.5768,VALID,0,VALID,20.2105,VALID,136,VALID,0.503162,
2007-12-10, 02:56:00,VALID,913.895,VALID,0,VALID,99.6073,VALID,0.0169808,VALID,20.197,VALID,130,VALID,0.538504,
2007-12-10, 02:57:00,VALID,913.904,VALID,0,VALID,99.6404,VALID,0,VALID,20.1912,VALID,124,VALID,0.404154,
2007-12-10, 02:58:00,VALID,913.893,VALID,0,VALID,99.6556,VALID,0.0509425,VALID,20.1775,VALID,129,VALID,0.642485,
2007-12-10, 02:59:00,VALID,913.907,VALID,0,VALID,99.6798,VALID,0,VALID,20.1845,VALID,125,VALID,0.811942,
2007-12-10, 03:00:00,VALID,913.924,VALID,0,VALID,99.6938,VALID,0,VALID,20.1715,VALID,123,VALID,0.474276,
2007-12-10, 03:01:00,VALID,913.94,VALID,0,VALID,99.7688,VALID,0,VALID,20.152,VALID,121,VALID,0.386265,
2007-12-10, 03:02:00,VALID,913.943,VALID,0,VALID,99.8057,VALID,0,VALID,20.1356,VALID,107,VALID,0.356831,
2007-12-10, 03:03:00,VALID,913.943,VALID,0,VALID,99.8693,VALID,0,VALID,20.1291,VALID,102,VALID,0.193598,
2007-12-10, 03:04:00,VALID,913.945,VALID,0,VALID,99.8985,VALID,0.0339617,VALID,20.1228,VALID,102,VALID,0.393973,
2007-12-10, 03:05:00,VALID,913.93,VALID,0,VALID,99.9456,VALID,0,VALID,20.1099,VALID,102,VALID,0.34737,
2007-12-10, 03:06:00,VALID,913.928,VALID,0,VALID,99.9883,VALID,0,VALID,20.1131,VALID,105,VALID,0.342076,
2007-12-10, 03:07:00,VALID,913.938,VALID,0,VALID,100,VALID,0.0169808,VALID,20.1131,VALID,143,VALID,0.438244,
2007-12-10, 03:08:00,VALID,913.937,VALID,0,VALID,100,VALID,0.0169808,VALID,20.1026,VALID,148,VALID,0.188021,
2007-12-10, 03:09:00,VALID,913.944,VALID,0,VALID,100,VALID,0.0339617,VALID,20.1164,VALID,148,VALID,0.161458,
2007-12-10, 03:10:00,VALID,913.951,VALID,0,VALID,100,VALID,0.0169808,VALID,20.1031,VALID,149,VALID,0.339939,
2007-12-10, 03:11:00,VALID,913.936,VALID,0,VALID,100,VALID,0.0509425,VALID,20.1191,VALID,149,VALID,0.106771,
2007-12-10, 03:12:00,VALID,913.922,VALID,0,VALID,100,VALID,-0.0339617,VALID,20.1366,VALID,154,VALID,0.0748857,
2007-12-10, 03:13:00,VALID,913.921,VALID,0,VALID,100,VALID,-0.0509425,VALID,20.1368,VALID,191,VALID,0.275618,
2007-12-10, 03:14:00,VALID,913.916,VALID,0,VALID,100,VALID,-0.101885,VALID,20.1339,VALID,193,VALID,0.353743,
2007-12-10, 03:15:00,VALID,913.903,VALID,0,VALID,100,VALID,-0.0679233,VALID,20.1174,VALID,190,VALID,0.27474,
2007-12-10, 03:16:00,VALID,913.901,VALID,0,VALID,100,VALID,-0.0679233,VALID,20.1079,VALID,190,VALID,0.2258,
2007-12-10, 03:17:00,VALID,913.875,VALID,0,VALID,100,VALID,-0.0849042,VALID,20.1011,VALID,180,VALID,0.359375,
2007-12-10, 03:18:00,VALID,913.863,VALID,0,VALID,100,VALID,-0.0849042,VALID,20.0917,VALID,174,VALID,0.161399,
2007-12-10, 03:19:00,VALID,913.853,VALID,0,VALID,100,VALID,-0.0679233,VALID,20.0719,VALID,175,VALID,0.240767,
2007-12-10, 03:20:00,VALID,913.845,VALID,0,VALID,100,VALID,-0.0679233,VALID,20.0657,VALID,149,VALID,0.536776,
2007-12-10, 03:21:00,VALID,913.841,VALID,0,VALID,100,VALID,-0.101885,VALID,20.04,VALID,152,VALID,0.307231,
2007-12-10, 03:22:00,VALID,913.834,VALID,0,VALID,100,VALID,-0.0849042,VALID,20.017,VALID,152,VALID,0.33194,
2007-12-10, 03:23:00,VALID,913.847,VALID,0,VALID,100,VALID,-0.0679233,VALID,20.0143,VALID,152,VALID,0.0289634,
2007-12-10, 03:24:00,VALID,913.86,VALID,0,VALID,100,VALID,-0.0849042,VALID,19.9973,VALID,152,VALID,0.0481468,
2007-12-10, 03:25:00,VALID,913.879,VALID,0,VALID,100,VALID,-0.0849042,VALID,19.9941,VALID,168,VALID,0.614258,
2007-12-10, 03:26:00,VALID,913.864,VALID,0,VALID,100,VALID,-0.101885,VALID,19.9848,VALID,173,VALID,0.658381,
2007-12-10, 03:27:00,VALID,913.878,VALID,0,VALID,100,VALID,-0.0679233,VALID,19.9778,VALID,175,VALID,0.522711,
2007-12-10, 03:28:00,VALID,913.853,VALID,0,VALID,100,VALID,-0.0849042,VALID,19.9816,VALID,177,VALID,0.692361,
2007-12-10, 03:29:00,VALID,913.833,VALID,0,VALID,100,VALID,-0.101885,VALID,19.9741,VALID,181,VALID,0.544969,
2007-12-10, 03:30:00,VALID,913.82,VALID,0,VALID,100,VALID,-0.0679233,VALID,19.9654,VALID,182,VALID,0.769804,
2007-12-10, 03:31:00,VALID,913.828,VALID,0,VALID,100,VALID,-0.0849042,VALID,19.9621,VALID,172,VALID,0.584936,
2007-12-10, 03:32:00,VALID,913.845,VALID,0,VALID,100,VALID,-0.101885,VALID,19.9556,VALID,149,VALID,0.463118,
2007-12-10, 03:33:00,VALID,913.858,VALID,0,VALID,100,VALID,-0.101885,VALID,19.9589,VALID,151,VALID,0.529615,
2007-12-10, 03:34:00,VALID,913.865,VALID,0,VALID,100,VALID,-0.101885,VALID,19.9556,VALID,173,VALID,0.659412,
2007-12-10, 03:35:00,VALID,913.866,VALID,0,VALID,100,VALID,-0.0679233,VALID,19.9456,VALID,169,VALID,0.765278,
2007-12-10, 03:36:00,VALID,913.853,VALID,0,VALID,100,VALID,-0.101885,VALID,19.9494,VALID,162,VALID,1.00457,